{"data":{"norad_id":63809,"intl_designator":"2025-092F","name":"STARLINK-34095","alt_names":[],"object_type":"PAYLOAD","status":"ACTIVE","operator":null,"country":"US","launch_date":"2025-05-04","launch_site_code":"AFETR","launch_vehicle":null,"mission":null,"orbit_class":"UNKNOWN","rcs_meters":null,"size_class":null,"mass_kg":null,"dimensions":null,"purposes":["comms"],"wikipedia_slug":null,"has_3d_model":false,"image_url":null,"decayed_at":null,"tle_current":{"epoch":"2026-09-20T22:59:06.724608Z","epoch_age_seconds":110150,"freshness":"FRESH","line1":"1 63809U 25092F   26263.95771672  .00010994  00000+0  40832-3 0  9999","line2":"2 63809  43.0014 150.1871 0001381 270.0487  90.0207 15.27588704 78475","mean_motion":15.27588704,"eccentricity":0.0001381,"inclination_deg":43.0014,"raan_deg":150.1871,"arg_perigee_deg":270.0487,"mean_anomaly_deg":90.0207,"bstar":0.00040832,"rev_number":7847,"period_min":94.266211594086,"perigee_km":482.07550705557,"apogee_km":483.97055945675,"semimajor_km":6861.1600332562,"source":"CELESTRAK","updated_at":"2026-09-21T09:00:35.104932Z"}}}